ATLAS 5 CENTAUR DEB, 52828

Orbit data source: Space-Track

ATLAS 5 CENTAUR DEB, 52828 is space debris in HEO originally from a launch on Wed, 17 Sep 2014 UTC launched from the Air Force Eastern Test Range (AFETR). Debris objects in space refer to the collection of defunct objects orbiting the Earth. Examples of debris include non-operational satellites, rocket bodies, and fragments generated from explosions, collisions, or faulty payload assembly.

Loading next visibility...
Identifier
52828, 2014-055DL
Orbit
HEO
Country
Flag of USUS
Related business
Flag of USUnited Launch Alliance/Lockheed Martin (US)
Manufacturer
Unknown
Mission
Spacecraft
Bus & Motor
Unknown
Mass
Unknown
Launch date (UTC)
2014-09-17 (11 years ago)
Launch vehicle
Unknown
Launch site
Air Force Eastern Test Range (AFETR)
Object type
Payload
Rocket body
Debris
Shape & HBR
Unknown shape, 1.1 m
Radar Cross Section
RCS unknown

Expand to show TLE details & history
Last TLE update: 3 days ago

TLE from 3 days ago
0 ATLAS 5 CENTAUR DEB
1 52828U 14055DL  25288.62918245 -.00000024  00000-0  00000-0 0  9999
2 52828  19.3398 193.4472 4723947  78.9638 328.9205  1.81208794 22639
Epoch: 2025-10-15T15:06Z
TLE epoch observation values (Epoch: 2025-10-15T15:06:01.363Z)
Latitude
0.00002°
Longitude
-57.43011°
Altitude
13,875.221 km
Speed
5.034 km/s
True Right ascension
12h 53m 54s
True Declination
0° 00' 00"
Sunlit
Object was in daylight at epoch
Visualization orbit readout
Latitude
Unknown
Longitude
Unknown
Altitude
Unknown
Speed
Unknown
Apparent Right ascension
Unknown
Apparent Declination
Unknown
Sunlit
N/A
Visualization observer readout
Local Sidereal Time
09:34:12
Azimuth
Unknown
Elevation
Unknown
Doppler factor
Unknown
Orbital elements
Apogee altitude
35,469.32 km
Perigee altitude
8,617.122 km
Semi-major axis
28,421.358 km
Eccentricity
0.47239
Inclination
19.3398°
RAAN
193.4472°
Arg. of periapsis
78.9638°
True anomaly
280.94397°
Mean anomaly
328.9205°
Eccentric anomaly
307.42622°
Mean motion
0.45298 °/min
Orbital period
794.74 mins
BSTAR
0
Loading maneuver chart data...
Computing Atmospheric mass density...

Documentation

Showing up to 5 results
|